This is the latest recevied weather packets stored in our database for station/object KD7MPG-3. If no packets are shown the sender has not sent any weather packets the latest 1 day(s).
| Time | Temp. | Humidity | Pressure | Rain* | Wind** | Luminosity | Snow |
|---|---|---|---|---|---|---|---|
| 1778026562 | 21.11° C | 70% | 1023.8 hPa | 0 mm | 1.34 m/s, 95° | - | - |
| 1778026261 | 20.56° C | 70% | 1023.8 hPa | 0 mm | 0.89 m/s, 49° | - | - |
| 1778025960 | 20.56° C | 71% | 1023.8 hPa | 0 mm | 0.89 m/s, 76° | - | - |
| 1778025659 | 20° C | 70% | 1023.8 hPa | 0 mm | 0.45 m/s, 342° | - | - |
| 1778025362 | 19.44° C | 72% | 1023.9 hPa | 0 mm | 0 m/s | - | - |
| 1778025058 | 19.44° C | 72% | 1024 hPa | 0 mm | 0.45 m/s, 33° | - | - |
| 1778024757 | 19.44° C | 71% | 1024 hPa | 0 mm | 0.89 m/s, 5° | - | - |
| 1778024455 | 20° C | 71% | 1024 hPa | 0 mm | 0.89 m/s, 22° | - | - |
| 1778024156 | 20° C | 70% | 1024.1 hPa | 0 mm | 0.89 m/s, 296° | - | - |
| 1778023853 | 20° C | 72% | 1024.2 hPa | 0 mm | 0.89 m/s, 71° | - | - |
| 1778023553 | 20° C | 71% | 1024.1 hPa | 0 mm | 0.89 m/s, 65° | - | - |
| 1778023254 | 20° C | 72% | 1024.2 hPa | 0 mm | 0.89 m/s, 101° | - | - |
| 1778022951 | 20° C | 71% | 1024.2 hPa | 0 mm | 0.45 m/s, 90° | - | - |
| 1778022649 | 20° C | 71% | 1024.3 hPa | 0 mm | 0.89 m/s, 134° | - | - |
| 1778022349 | 20° C | 72% | 1024.4 hPa | 0 mm | 0.89 m/s, 78° | - | - |
| 1778022044 | 20° C | 75% | 1024.4 hPa | 0 mm | 0.89 m/s, 49° | - | - |
| 1778021743 | 19.44° C | 75% | 1024.3 hPa | 0 mm | 0.89 m/s, 355° | - | - |
| 1778021443 | 18.89° C | 77% | 1024.5 hPa | 0 mm | 0.89 m/s, 67° | - | - |
| 1778021143 | 18.33° C | 76% | 1024.5 hPa | 0 mm | 0.89 m/s, 59° | - | - |
| 1778020843 | 18.33° C | 76% | 1024.6 hPa | 0 mm | 0.89 m/s, 90° | - | - |
| 1778020544 | 18.33° C | 75% | 1024.6 hPa | 0 mm | 0.45 m/s, 342° | - | - |
| 1778020239 | 18.33° C | 76% | 1024.6 hPa | 0 mm | 1.34 m/s, 24° | - | - |
| 1778019941 | 18.33° C | 76% | 1024.7 hPa | 0 mm | 1.34 m/s, 298° | - | - |
| 1778019637 | 18.33° C | 78% | 1024.6 hPa | 0 mm | 0.45 m/s, 121° | - | - |
| 1778019338 | 17.78° C | 77% | 1024.7 hPa | 0 mm | 0 m/s | - | - |
* Rain latest hour (hover to see other rain measurements)
** Current wind speed in m/s (hover to see current wind gust speed)